STARLINK-34806, 65065

Orbit data source: Space-Track

STARLINK-34806, 65065 is a payload satellite owned by SpaceX/Seattle (US) in SSO that was launched on Thu, 31 Jul 2025 UTC via an FALCON 9 launch vehicle from the Air Force Western Test Range (AFWTR). Payload-class satellites include a variety of spacecraft equipped with specific instruments for various scientific and technological missions. These include communications satellites like Starlink; space stations such as the ISS; scientific satellites like the Hubble; Earth observation satellites from companies like Planet Labs, Umbra, and HawkEye 360; GPS; miniature CubeSats for education and research; and military/defense satellites.

Loading next visibility...
Identifier
65065, 2025-165K
Orbit
SSO
Country
Flag of USUS
Related business
Manufacturer
SpaceX/Seattle
Mission
Operational Commercial Communications
Bus & Motor
STARLINK V2MO, Unknown motor
Mass
575 kg wet, ~530 kg dry
Launch date (UTC)
2025-07-31 (11 months ago)
Launch vehicle
FALCON 9
Launch site
Air Force Western Test Range (AFWTR)
Object type
Payload
Rocket body
Debris
Shape & HBR
Box + 2 Pan, 17.7 m
Radar Cross Section
36.964 m², Large (>1 m²)

Expand to show TLE details & history
Last TLE update: 12 hours ago

TLE from 12 hours ago
0 STARLINK-34806
1 65065U 25165K   26171.48173211  .00001136  00000-0  82652-4 0  9993
2 65065  97.3377 247.3951 0001638 149.6428 210.4894 15.05655758 50250
Epoch: 2026-06-20T11:33Z
TLE epoch observation values (Epoch: 2026-06-20T11:33:41.654Z)
Latitude
-0.00008°
Longitude
165.27582°
Altitude
553.544 km
Speed
7.584 km/s
True Right ascension
16h 29m 34s
True Declination
0° 00' 00"
Sunlit
Object was in full shadow at epoch
Visualization orbit readout
Latitude
Unknown
Longitude
Unknown
Altitude
Unknown
Speed
Unknown
Apparent Right ascension
Unknown
Apparent Declination
Unknown
Sunlit
N/A
Visualization observer readout
Local Sidereal Time
10:18:31
Azimuth
Unknown
Elevation
Unknown
Doppler factor
Unknown
Orbital elements
Apogee altitude
547.61 km
Perigee altitude
545.341 km
Semi-major axis
6,924.613 km
Eccentricity
0.00016
Inclination
97.3377°
RAAN
247.3951°
Arg. of periapsis
149.6428°
True anomaly
210.47988°
Mean anomaly
210.4894°
Eccentric anomaly
210.48464°
Mean motion
3.7666 °/min
Orbital period
95.58 mins
BSTAR
0.000082652
Loading maneuver chart data...
Computing Atmospheric mass density...
Loading historical data...
Loading historical data...
Loading historical data...
Loading historical data...
Loading historical data...
Loading historical data...
Loading historical data...

Documentation

Showing up to 5 results
|